STARLINK-11604, 63133

Orbit data source: Space-Track

STARLINK-11604, 63133 is a payload satellite owned by SpaceX/Seattle (US) in LEO that was launched on Mon, 03 Mar 2025 UTC via an FALCON 9 launch vehicle from the Air Force Eastern Test Range (AFETR). Payload-class satellites include a variety of spacecraft equipped with specific instruments for various scientific and technological missions. These include communications satellites like Starlink; space stations such as the ISS; scientific satellites like the Hubble; Earth observation satellites from companies like Planet Labs, Umbra, and HawkEye 360; GPS; miniature CubeSats for education and research; and military/defense satellites.

Loading next visibility...
Identifier
63133, 2025-043B
Orbit
LEO
Country
Flag of USUS
Related business
Manufacturer
SpaceX/Seattle
Mission
Operational Commercial Communications
Bus & Motor
STARLINK V2MD, Unknown motor
Mass
960 kg wet, ~910 kg dry
Launch date (UTC)
2025-03-03 (2 years ago)
Launch vehicle
FALCON 9
Launch site
Air Force Eastern Test Range (AFETR)
Object type
Payload
Rocket body
Debris
Shape & HBR
Box + 2 Pan, 18.1 m
Radar Cross Section
36.964 m², Large (>1 m²)

Expand to show TLE details & history
Last TLE update: 10 hours ago

TLE from 10 hours ago
0 STARLINK-11604
1 63133U 25043B   26255.85356060  .00260816  00000-0  19626-2 0  9992
2 63133  43.0006 202.9577 0001627 236.7099 123.3613 15.70966022 88783
Epoch: 2026-09-12T20:29Z
TLE epoch observation values (Epoch: 2026-09-12T20:29:07.635Z)
Latitude
-0.00003°
Longitude
-96.18075°
Altitude
356.509 km
Speed
7.697 km/s
True Right ascension
13h 31m 49s
True Declination
0° 00' 00"
Sunlit
Object was in daylight at epoch
Visualization orbit readout
Latitude
Unknown
Longitude
Unknown
Altitude
Unknown
Speed
Unknown
Apparent Right ascension
Unknown
Apparent Declination
Unknown
Sunlit
N/A
Visualization observer readout
Local Sidereal Time
23:02:44
Azimuth
Unknown
Elevation
Unknown
Doppler factor
Unknown
Orbital elements
Apogee altitude
359.212 km
Perigee altitude
357.02 km
Semi-major axis
6,736.253 km
Eccentricity
0.00016
Inclination
43.0006°
RAAN
202.9577°
Arg. of periapsis
236.7099°
True anomaly
123.37687°
Mean anomaly
123.3613°
Eccentric anomaly
123.36909°
Mean motion
3.92569 °/min
Orbital period
91.7 mins
BSTAR
0.0019626
Loading maneuver chart data...
Computing Atmospheric mass density...
Loading historical data...
Loading historical data...
Loading historical data...
Loading historical data...
Loading historical data...
Loading historical data...
Loading historical data...

Documentation

Showing up to 5 results
|